GW4712 Weather Reports


time (UTC)temp
F
wind
direction
speed
knots
gust
knots
rain 1hr
in
rain 24hr
in
rain mn
in
humidity
%
barometer
mb
20260505041625 51 203 0.0 0.0 0.00 0.00 0.00 97 1009.7
20260505041123 51 203 0.0 0.0 0.00 0.00 0.00 97 1009.7
20260505040619 51 203 0.0 0.0 0.00 0.00 0.00 97 1009.8
20260505040117 51 203 0.0 0.0 0.00 0.00 0.00 96 1009.8
20260505035613 51 203 0.0 0.9 0.00 0.00 0.00 96 1009.6
20260505035109 51 203 0.0 0.0 0.00 0.00 0.00 96 1009.7
20260505034606 51 203 0.0 0.0 0.00 0.00 0.00 96 1009.6
20260505034103 51 203 0.0 0.0 0.00 0.00 0.00 96 1009.5
20260505033559 51 203 0.0 0.0 0.00 0.00 0.00 96 1009.7
20260505033058 51 203 0.0 0.0 0.00 0.00 0.00 96 1009.8
20260505032555 51 203 0.0 0.0 0.00 0.00 0.00 96 1009.8
20260505032051 51 203 0.0 0.0 0.00 0.00 0.00 96 1009.6
20260505031549 52 203 0.0 0.0 0.00 0.00 0.00 96 1009.6
20260505031045 52 203 0.0 0.0 0.00 0.00 0.00 95 1009.6
20260505030542 52 203 0.0 0.0 0.00 0.00 0.00 95 1009.6
20260505030038 52 203 0.0 0.0 0.00 0.00 0.00 96 1009.7
20260505025533 52 203 0.0 0.0 0.00 0.00 0.00 95 1009.8
20260505025033 52 203 0.0 0.0 0.00 0.00 0.00 95 1009.8
20260505024529 52 203 0.0 0.0 0.00 0.00 0.00 95 1009.8
20260505024026 52 203 0.0 0.0 0.00 0.00 0.00 95 1009.7
20260505023523 52 203 0.0 0.0 0.00 0.00 0.00 95 1009.8
20260505023021 53 203 0.0 0.0 0.00 0.00 0.00 95 1009.6
20260505022519 53 203 0.0 0.0 0.00 0.00 0.00 94 1009.4
20260505022016 53 203 0.0 0.9 0.00 0.00 0.00 94 1009.6
20260505021513 53 203 0.0 0.0 0.00 0.00 0.00 93 1009.6
20260505021009 53 203 0.0 0.0 0.00 0.00 0.00 93 1009.6
20260505020509 53 203 0.0 0.0 0.00 0.00 0.00 93 1009.6
20260505020006 53 203 0.0 0.0 0.00 0.00 0.00 93 1009.6
20260505015503 54 203 0.0 0.0 0.00 0.00 0.00 92 1009.6
20260505015000 54 203 0.0 0.0 0.00 0.00 0.00 92 1009.6
20260505014457 54 203 0.0 0.0 0.00 0.00 0.00 91 1009.6
20260505013954 55 203 0.0 0.0 0.00 0.00 0.00 91 1009.6
20260505013451 55 203 0.0 0.0 0.00 0.00 0.00 90 1009.4
20260505012948 55 203 0.0 0.0 0.00 0.00 0.00 88 1009.6
20260505012446 55 203 0.0 0.0 0.00 0.00 0.00 88 1009.7
20260505011943 56 203 0.0 0.0 0.00 0.00 0.00 87 1009.6
20260505011439 56 203 0.0 0.9 0.00 0.00 0.00 87 1009.6
20260505010936 56 203 0.0 0.9 0.00 0.00 0.00 86 1009.6
20260505010432 57 203 0.0 0.0 0.00 0.00 0.00 87 1009.5
20260505005928 57 203 0.0 0.0 0.00 0.00 0.00 86 1009.4
20260505005425 57 203 0.9 0.9 0.00 0.00 0.00 85 1009.5
20260505004922 58 203 0.0 0.0 0.00 0.00 0.00 85 1009.5
20260505004418 58 203 0.0 0.0 0.00 0.00 0.00 85 1009.7
20260505003915 59 203 0.0 0.0 0.00 0.00 0.00 84 1009.7
20260505003413 60 203 0.9 0.9 0.00 0.00 0.00 81 1009.8
20260505002909 60 203 0.0 0.0 0.00 0.00 0.00 80 1009.7
20260505002405 61 203 0.9 0.9 0.00 0.00 0.00 78 1009.7
20260505001904 62 203 0.0 0.0 0.00 0.00 0.00 78 1009.7
20260505001401 62 203 0.0 0.0 0.00 0.00 0.00 75 1009.6
20260505000858 63 203 0.0 0.0 0.00 0.00 0.00 75 1009.7
20260505000358 64 203 0.0 0.9 0.00 0.00 0.00 72 1009.7
20260504235852 70 250 0.9 0.9 0.00 0.00 0.00 60 1009.7
20260504235349 70 250 0.9 0.9 0.00 0.00 0.00 60 1009.9
20260504234845 70 302 1.7 1.7 0.00 0.00 0.00 52 1009.7
20260504234343 71 254 0.9 1.7 0.00 0.00 0.00 51 1009.6
20260504233840 71 324 2.6 3.5 0.00 0.00 0.00 50 1009.8
20260504233335 72 255 1.7 1.7 0.00 0.00 0.00 49 1009.9
20260504232833 72 236 0.9 1.7 0.00 0.00 0.00 49 1009.8
20260504232330 72 286 0.0 0.0 0.00 0.00 0.00 49 1009.9
20260504231826 71 248 1.7 1.7 0.00 0.00 0.00 49 1010.0
20260504231323 71 306 3.5 5.2 0.00 0.00 0.00 50 1009.9
20260504230819 71 313 1.7 1.7 0.00 0.00 0.00 52 1009.9
20260504230317 71 309 0.9 2.6 0.00 0.00 0.00 50 1009.9
20260504225816 71 260 1.7 5.2 0.00 0.00 0.00 50 1010.0
20260504225311 71 301 3.5 3.5 0.00 0.00 0.00 47 1009.9
20260504224809 71 96 1.7 5.2 0.00 0.00 0.00 48 1010.0
20260504224306 71 314 4.3 7.0 0.00 0.00 0.00 50 1010.1
20260504223802 71 256 4.3 5.2 0.00 0.00 0.00 48 1010.0
20260504223258 71 271 3.5 7.0 0.00 0.00 0.00 50 1009.9
20260504222755 71 300 2.6 9.6 0.00 0.00 0.00 48 1010.2
20260504222252 71 281 3.5 5.2 0.00 0.00 0.00 48 1009.7
20260504221750 72 276 0.9 2.6 0.00 0.00 0.00 48 1009.6
20260504221247 72 198 1.7 11.3 0.00 0.00 0.00 49 1009.8
20260504220743 72 268 3.5 8.7 0.00 0.00 0.00 47 1009.8
20260504220240 72 247 1.7 5.2 0.00 0.00 0.00 48 1009.9
20260504215737 72 313 5.2 7.8 0.00 0.00 0.00 50 1009.9
20260504215234 72 279 2.6 5.2 0.00 0.00 0.00 49 1009.9
20260504214730 72 243 4.3 7.8 0.00 0.00 0.00 47 1010.0
20260504214226 71 257 3.5 7.0 0.00 0.00 0.00 48 1010.0
20260504213723 72 272 3.5 9.6 0.00 0.00 0.00 47 1010.1
20260504213220 72 301 2.6 6.1 0.00 0.00 0.00 46 1010.0
20260504212717 72 246 7.0 9.6 0.00 0.00 0.00 46 1010.0
20260504212214 73 255 3.5 7.0 0.00 0.00 0.00 46 1009.9
20260504211711 74 225 4.3 8.7 0.00 0.00 0.00 45 1009.8
20260504211207 74 313 5.2 7.8 0.00 0.00 0.00 44 1009.6
20260504210704 74 317 1.7 8.7 0.00 0.00 0.00 46 1009.4
20260504210201 75 297 5.2 7.0 0.00 0.00 0.00 45 1009.3
20260504205658 75 240 3.5 3.5 0.00 0.00 0.00 44 1009.5
20260504205155 73 247 3.5 7.8 0.00 0.00 0.00 47 1009.6
20260504204654 73 315 4.3 7.0 0.00 0.00 0.00 47 1009.7
20260504204153 73 313 4.3 8.7 0.00 0.00 0.00 45 1009.8
20260504203651 73 294 5.2 7.0 0.00 0.00 0.00 45 1009.8
20260504203148 73 181 1.7 3.5 0.00 0.00 0.00 46 1009.6
20260504202643 73 240 0.9 6.1 0.00 0.00 0.00 47 1009.7
20260504202140 72 211 1.7 2.6 0.00 0.00 0.00 50 1009.9
20260504201637 71 235 4.3 8.7 0.00 0.00 0.00 49 1009.9
20260504201135 71 323 1.7 5.2 0.00 0.00 0.00 48 1010.0
20260504200632 71 310 3.5 6.1 0.00 0.00 0.00 48 1010.1
20260504200128 71 261 2.6 5.2 0.00 0.00 0.00 49 1010.2
20260504195624 71 280 2.6 11.3 0.00 0.00 0.00 49 1010.3
20260504195121 72 314 4.3 6.1 0.00 0.00 0.00 48 1010.1
20260504194618 71 234 4.3 6.1 0.00 0.00 0.00 47 1010.1
20260504194114 72 258 2.6 6.1 0.00 0.00 0.00 48 1010.2
20260504193610 72 312 7.0 12.2 0.00 0.00 0.00 49 1010.2
20260504193109 73 314 3.5 8.7 0.00 0.00 0.00 48 1010.3
20260504192606 72 257 3.5 7.0 0.00 0.00 0.00 46 1010.2
20260504192104 72 264 7.0 11.3 0.00 0.00 0.00 47 1010.5
20260504191603 72 274 6.1 7.8 0.00 0.00 0.00 50 1010.4
20260504191058 71 166 0.9 7.0 0.00 0.00 0.00 46 1010.6
20260504190554 71 299 6.1 8.7 0.00 0.00 0.00 47 1010.4
20260504190050 71 155 1.7 5.2 0.00 0.00 0.00 45 1010.3
20260504185548 72 194 6.1 12.2 0.00 0.00 0.00 45 1010.3
20260504185044 72 221 1.7 8.7 0.00 0.00 0.00 43 1010.4
20260504184539 72 311 3.5 12.2 0.00 0.00 0.00 47 1010.3
20260504184035 71 311 3.5 11.3 0.00 0.00 0.00 47 1010.2
20260504183532 71 2 2.6 7.8 0.00 0.00 0.00 48 1010.3
20260504183030 71 273 4.3 8.7 0.00 0.00 0.00 48 1010.6
20260504182526 71 315 12.2 15.6 0.00 0.00 0.00 46 1010.4
20260504182024 71 292 6.1 14.8 0.00 0.00 0.00 50 1010.5
20260504181521 71 187 3.5 6.1 0.00 0.00 0.00 48 1010.5
20260504181020 70 256 2.6 9.6 0.00 0.00 0.00 46 1010.5
20260504180518 71 309 6.1 20.0 0.00 0.00 0.00 48 1010.7
20260504180017 70 187 4.3 7.0 0.00 0.00 0.00 48 1010.9
20260504175513 69 304 9.6 12.2 0.00 0.00 0.00 50 1010.8
20260504175010 69 214 4.3 7.8 0.00 0.00 0.00 49 1011.1
20260504174508 69 306 3.5 7.8 0.00 0.00 0.00 48 1011.1
20260504174005 69 269 1.7 11.3 0.00 0.00 0.00 48 1011.3
20260504173501 69 261 5.2 13.9 0.00 0.00 0.00 52 1011.2
20260504172959 68 311 11.3 13.9 0.00 0.00 0.00 51 1011.3
20260504172455 69 312 3.5 13.0 0.00 0.00 0.00 50 1011.3
20260504171951 68 314 7.8 11.3 0.00 0.00 0.00 52 1011.4
20260504160135 64 295 3.5 6.1 0.00 0.00 0.00 56 1012.9
20260504151102 62 177 2.6 7.8 0.00 0.00 0.00 56 1013.5
20260504150601 63 331 12.2 13.0 0.00 0.00 0.00 57 1013.5
20260504141026 62 309 7.0 14.8 0.00 0.00 0.00 51 1013.6
20260504140523 62 297 2.6 8.7 0.00 0.00 0.00 50 1013.4
20260504130447 58 262 4.3 6.1 0.00 0.00 0.00 55 1013.4
20260504110334 44 127 0.9 1.7 0.00 0.00 0.00 94 1013.8
20260504100252 46 341 0.0 0.0 0.00 0.00 0.00 90 1014.0
20260504081645 47 95 0.0 0.0 0.00 0.00 0.00 87 1014.7
20260504081141 47 95 0.0 0.0 0.00 0.00 0.00 87 1014.7
20260504080638 47 95 0.0 0.0 0.00 0.00 0.00 87 1014.7
20260504080134 47 95 0.0 0.0 0.00 0.00 0.00 87 1014.7
20260504050451 45 299 0.0 0.0 0.00 0.00 0.00 85 1015.4
20260504045948 46 299 0.0 0.0 0.00 0.00 0.00 85 1015.4